PLATFORM,ARGOS_ID,DATE (YYYY/MM/DD HH:MI:SS),LATITUDE (degree_north),LONGITUDE (degree_east),TEMP LEVEL0 (degree_Celsius),EWCT LEVEL1 (meter/second),NSCT LEVEL1 (meter/second),QC,SVP_RCBN_Number,SVP_GNRL_ImmPercent,SVP_GNRL_BattVolt
62399,66560,2006/07/10 11:04:15,47.0896,-2.7706,24.36,,,00111499,15,0,12.6
62399,66560,2006/07/10 12:00:40,47.0955,-2.7596,19.88,0.246008,0.193811,00111100,18,0,12.7
62399,66560,2006/07/10 13:00:16,47.1001,-2.7448,20.12,0.313283,0.143036,00111100,9,0,12.7
62399,66560,2006/07/10 14:00:11,47.1010,-2.7317,20.28,0.275818,0.027837,00111100,8,0,12.7
62399,66560,2006/07/10 15:00:10,47.0987,-2.7217,20.84,0.210317,-0.071061,00111100,6,0,12.7
62399,66560,2006/07/10 16:00:40,47.0940,-2.7193,21.32,0.050048,-0.143971,00111100,6,0,12.7
62399,66560,2006/07/10 17:00:12,47.0868,-2.7231,21,-0.080539,-0.224133,00111100,4,0,12.7
62399,66560,2006/07/10 18:00:35,47.0788,-2.7351,20.36,-0.250788,-0.245531,00111100,4,3,12.7
62399,66560,2006/07/10 19:00:10,47.0722,-2.7537,20.36,-0.393995,-0.205283,00111100,3,3,12.7
62399,66560,2006/07/10 20:00:05,47.0700,-2.7731,20.36,-0.408689,-0.068047,00111100,4,0,12.7
62399,66560,2006/07/10 21:00:39,47.0717,-2.7905,20.2,-0.362624,0.052017,00111100,1,3,12.7
62399,66560,2006/07/10 22:00:11,47.0795,-2.8001,20.12,-0.203523,0.242811,00111100,1,4,12.7
62399,66560,2006/07/10 23:00:22,47.0909,-2.7974,20.04,0.056612,0.351045,00111100,3,3,12.7
62399,66560,2006/07/11 00:00:40,47.1026,-2.7834,19.72,0.292914,0.359586,00111100,1,4,12.7
62399,66560,2006/07/11 01:00:10,47.1110,-2.7646,19.64,0.398555,0.261635,00111100,5,14,12.7
62399,66560,2006/07/11 02:00:10,47.1152,-2.7463,19.56,0.384677,0.129727,00111100,8,20,12.7
62399,66560,2006/07/11 03:00:16,47.1149,-2.7309,19.56,0.323166,-0.009251,00111100,4,19,12.7
62399,66560,2006/07/11 04:01:10,47.1106,-2.7210,19.4,0.20503,-0.130853,00111100,6,47,12.7
62399,66560,2006/07/11 05:00:11,47.1032,-2.7197,19.32,0.027785,-0.232376,00111100,1,53,12.7
62399,66560,2006/07/11 06:00:11,47.0933,-2.7254,19.24,-0.119851,-0.305786,00111100,5,49,12.7
62399,66560,2006/07/11 07:00:40,47.0835,-2.7388,19.16,-0.279554,-0.300278,00111100,6,30,12.7
62399,66560,2006/07/11 08:00:10,47.0757,-2.7562,19.16,-0.369064,-0.242947,00111100,1,26,12.7
62399,66560,2006/07/11 09:00:16,47.0712,-2.7718,19.24,-0.327619,-0.138762,00111100,1,30,12.7
62399,66560,2006/07/11 10:00:40,47.0716,-2.7825,19.24,-0.223606,0.012273,00111100,6,50,12.7
62399,66560,2006/07/11 11:00:10,47.0768,-2.7844,19.4,-0.040304,0.161965,00111100,4,36,12.7
62399,66560,2006/07/11 12:00:11,47.0852,-2.7777,19.48,0.140884,0.259383,00111100,3,41,12.6
62399,66560,2006/07/11 13:00:40,47.0942,-2.7652,19.56,0.260772,0.275766,00111100,5,30,12.7
62399,66560,2006/07/11 14:00:10,47.1000,-2.7496,19.64,0.330776,0.180653,00111100,7,31,12.6
62399,66560,2006/07/11 15:00:16,47.1011,-2.7345,19.64,0.316957,0.03392,00111100,4,39,12.6
62399,66560,2006/07/11 16:00:40,47.0976,-2.7254,19.56,0.19007,-0.10739,00111100,4,57,12.6
62399,66560,2006/07/11 17:00:10,47.0908,-2.7238,19.56,0.033928,-0.2118,00111100,5,69,12.6
62399,66560,2006/07/11 18:00:05,47.0818,-2.7290,19.56,-0.109514,-0.278374,00111100,1,84,12.6
62399,66560,2006/07/11 19:01:05,47.0713,-2.7428,19.56,-0.285524,-0.319002,00111100,1,87,12.6
62399,66560,2006/07/11 20:00:20,47.0634,-2.7603,19.48,-0.372837,-0.2471,00111100,1,84,12.6
62399,66560,2006/07/11 21:00:17,47.0592,-2.7784,19.48,-0.38116,-0.129836,00111100,1,90,12.6
62399,66560,2006/07/11 22:01:10,47.0587,-2.7926,19.24,-0.294461,-0.01522,00111100,3,96,12.6
62399,66560,2006/07/11 23:00:10,47.0618,-2.7990,19.08,-0.136948,0.097374,00111100,1,100,12.6
62399,66560,2006/07/12 00:00:10,47.0656,-2.7953,18.84,0.077848,0.117372,00111100,3,92,12.6
62399,66560,2006/07/12 01:00:16,47.0713,-2.7845,18.68,0.226835,0.175766,00111100,5,88,12.6
62399,66560,2006/07/12 02:00:40,47.0761,-2.7679,18.6,0.346887,0.147278,00111100,3,88,12.6
62399,66560,2006/07/12 03:00:16,47.0763,-2.7528,18.52,0.319762,0.006219,00111100,7,92,12.6
62399,66560,2006/07/12 04:00:17,47.0725,-2.7407,18.52,0.254463,-0.11734,00111100,5,82,12.6
62399,66560,2006/07/12 05:00:41,47.0652,-2.7341,18.6,0.137932,-0.223985,00111100,3,98,12.6
62399,66560,2006/07/12 06:00:15,47.0550,-2.7330,18.6,0.023314,-0.317344,00111100,4,88,12.6
62399,66560,2006/07/12 07:00:10,47.0436,-2.7398,18.6,-0.14331,-0.352607,00111100,1,96,12.6
62399,66560,2006/07/12 08:00:40,47.0323,-2.7539,18.68,-0.294355,-0.346144,00111100,1,88,12.6
62399,66560,2006/07/12 09:00:16,47.0244,-2.7670,18.76,-0.277659,-0.245649,00111100,1,96,12.6
62399,66560,2006/07/12 10:00:10,47.0196,-2.7773,18.84,-0.217244,-0.148507,00111100,1,82,12.6
62399,66560,2006/07/12 11:00:14,47.0201,-2.7821,18.92,-0.100963,0.015427,00111100,1,85,12.6
62399,66560,2006/07/12 12:00:40,47.0255,-2.7788,19,0.068987,0.165596,00111100,8,63,12.6
62399,66560,2006/07/12 13:00:10,47.0352,-2.7666,19.08,0.259008,0.302126,00111100,10,53,12.6
62399,66560,2006/07/12 14:00:10,47.0454,-2.7480,19.16,0.391517,0.315052,00111100,6,50,12.6
62399,66560,2006/07/12 15:00:16,47.0517,-2.7264,19.16,0.453839,0.194267,00111100,4,46,12.6
62399,66560,2006/07/12 16:00:40,47.0523,-2.7086,19.4,0.372115,0.01841,00111100,3,39,12.6
62399,66560,2006/07/12 17:00:16,47.0481,-2.6964,19.32,0.258477,-0.130598,00111100,5,71,12.6
62399,66560,2006/07/12 18:00:11,47.0400,-2.6898,19.32,0.139109,-0.250537,00111100,3,80,12.6
62399,66560,2006/07/12 19:00:40,47.0290,-2.6906,19.24,-0.016707,-0.337047,00111100,3,85,12.6
62399,66560,2006/07/12 20:00:11,47.0175,-2.7019,19.08,-0.239866,-0.358091,00111100,1,90,12.6
62399,66560,2006/07/12 21:00:12,47.0072,-2.7184,19,-0.347399,-0.318053,00111100,1,95,12.6
62399,66560,2006/07/12 22:01:04,47.0002,-2.7336,18.92,-0.31561,-0.213134,00111100,1,98,12.6
62399,66560,2006/07/12 23:00:06,46.9989,-2.7421,18.84,-0.181988,-0.040811,00111100,1,100,12.6
62399,66560,2006/07/13 00:00:10,47.0030,-2.7419,18.76,0.004208,0.126498,00111100,1,100,12.6
62399,66560,2006/07/13 01:00:17,47.0117,-2.7346,18.68,0.153456,0.2682,00111100,4,100,12.6
62399,66560,2006/07/13 02:00:41,47.0206,-2.7201,18.6,0.303331,0.273078,00111100,1,100,12.6
62399,66560,2006/07/13 03:00:40,47.0266,-2.7034,18.52,0.351731,0.185376,00111100,1,100,12.6
62399,66560,2006/07/13 04:00:11,47.0285,-2.6878,18.52,0.331115,0.059163,00111100,1,100,12.6
62399,66560,2006/07/13 05:00:10,47.0254,-2.6765,18.76,0.237983,-0.095778,00111100,1,88,12.6
62399,66560,2006/07/13 06:00:40,47.0184,-2.6726,18.76,0.081442,-0.214425,00111100,1,98,12.6
62399,66560,2006/07/13 07:00:16,47.0098,-2.6754,18.76,-0.059363,-0.267415,00111100,1,96,12.6
62399,66560,2006/07/13 08:00:11,46.9995,-2.6853,18.68,-0.208817,-0.318584,00111100,1,98,12.6
62399,66560,2006/07/13 09:00:16,46.9890,-2.7010,18.76,-0.330301,-0.323869,00111100,1,98,12.6
62399,66560,2006/07/13 10:00:40,46.9812,-2.7171,18.76,-0.336998,-0.239327,00111100,3,100,12.6
62399,66560,2006/07/13 11:00:10,46.9773,-2.7249,18.84,-0.165754,-0.121473,00111100,1,100,12.6
62399,66560,2006/07/13 12:00:06,46.9786,-2.7252,18.92,-0.006329,0.040198,00111100,7,76,12.6
62399,66560,2006/07/13 13:00:40,46.9860,-2.7202,19,0.104375,0.226429,00111100,6,82,12.6
62399,66560,2006/07/13 14:00:16,46.9959,-2.7063,19.24,0.294821,0.307838,00111100,5,23,12.6
62399,66560,2006/07/13 15:00:16,47.0037,-2.6879,19.24,0.387601,0.240922,00111100,4,36,12.5
62399,66560,2006/07/13 16:00:40,47.0064,-2.6713,19.24,0.347334,0.082844,00111100,5,25,12.6
62399,66560,2006/07/13 17:00:10,47.0042,-2.6593,19.24,0.254881,-0.068523,00111100,6,44,12.6
62399,66560,2006/07/13 18:00:35,46.9980,-2.6531,19.24,0.129701,-0.190182,00111100,1,36,12.6
62399,66560,2006/07/13 19:00:06,46.9884,-2.6517,19.24,0.029735,-0.298928,00111100,1,50,12.6
62399,66560,2006/07/13 20:00:13,46.9768,-2.6584,19.16,-0.140909,-0.357599,00111100,1,87,12.6
62399,66560,2006/07/13 21:00:40,46.9645,-2.6731,19.16,-0.307522,-0.377088,00111100,1,87,12.6
62399,66560,2006/07/13 22:00:40,46.9555,-2.6912,19.08,-0.381566,-0.277987,00111100,3,77,12.6
62399,66560,2006/07/13 23:00:05,46.9508,-2.7036,19,-0.264004,-0.146596,00111100,5,87,12.6
62399,66560,2006/07/14 00:00:11,46.9513,-2.7102,18.92,-0.138926,0.015418,00111100,1,93,12.6
62399,66560,2006/07/14 01:00:10,46.9569,-2.7088,18.84,0.029525,0.173018,00111100,3,98,12.6
62399,66560,2006/07/14 02:00:40,46.9658,-2.6984,18.76,0.217425,0.272627,00111100,1,100,12.6
62399,66560,2006/07/14 03:00:11,46.9735,-2.6826,18.68,0.335724,0.239765,00111100,3,98,12.6
62399,66560,2006/07/14 04:00:16,46.9781,-2.6672,18.52,0.324101,0.141885,00111100,6,98,12.6
62399,66560,2006/07/14 05:00:40,46.9773,-2.6554,18.52,0.247026,-0.024546,00111100,4,96,12.6
62399,66560,2006/07/14 06:00:16,46.9718,-2.6493,18.6,0.129422,-0.171021,00111100,5,96,12.6
62399,66560,2006/07/14 07:00:07,46.9650,-2.6462,18.52,0.065505,-0.210561,00111100,3,100,12.6
62399,66560,2006/07/14 08:00:40,46.9551,-2.6471,18.52,-0.018801,-0.303008,00111100,3,100,12.6
62399,66560,2006/07/14 09:00:10,46.9439,-2.6545,18.6,-0.157341,-0.348847,00111100,1,100,12.6
62399,66560,2006/07/14 10:00:06,46.9322,-2.6665,18.68,-0.253357,-0.361785,00111100,8,90,12.6
62399,66560,2006/07/14 11:00:11,46.9240,-2.6787,18.92,-0.256984,-0.252926,00111100,1,85,12.6
62399,66560,2006/07/14 12:00:40,46.9214,-2.6856,19.16,-0.144397,-0.079666,00111100,4,30,12.6
62399,66560,2006/07/14 13:00:16,46.9245,-2.6875,19.48,-0.040351,0.096394,00111100,6,1,12.6
62399,66560,2006/07/14 14:00:16,46.9332,-2.6816,19.72,0.12445,0.268721,00111100,9,0,12.6
62399,66560,2006/07/14 15:00:17,46.9438,-2.6683,19.64,0.280412,0.327316,00111100,7,0,12.6
62399,66560,2006/07/14 16:00:40,46.9518,-2.6531,19.72,0.318469,0.245531,00111100,6,0,12.6
62399,66560,2006/07/14 17:00:10,46.9538,-2.6411,19.64,0.255132,0.062294,00111100,4,0,12.6
62399,66560,2006/07/14 18:00:10,46.9514,-2.6325,19.64,0.181321,-0.07413,00111100,1,0,12.6
62399,66560,2006/07/14 19:00:40,46.9462,-2.6273,19.48,0.108738,-0.159287,00111100,1,12,12.6
62399,66560,2006/07/14 20:00:11,46.9384,-2.6263,19.32,0.021259,-0.242879,00111100,4,41,12.6
62399,66560,2006/07/14 21:00:17,46.9289,-2.6322,19.24,-0.124232,-0.292943,00111100,1,57,12.6
62399,66560,2006/07/14 22:00:39,46.9188,-2.6424,19.08,-0.213864,-0.310069,00111100,1,85,12.5
62399,66560,2006/07/14 23:00:11,46.9101,-2.6548,19.08,-0.263677,-0.270828,00111100,1,93,12.6
62399,66560,2006/07/15 00:00:40,46.9056,-2.6653,19,-0.219795,-0.137883,00111100,1,98,12.6
62399,66560,2006/07/15 01:00:12,46.9069,-2.6700,19,-0.099958,0.040468,00111100,1,87,12.6
62399,66560,2006/07/15 02:00:10,46.9136,-2.6672,18.84,0.059114,0.207061,00111100,7,100,12.6
62399,66560,2006/07/15 03:00:35,46.9231,-2.6573,18.84,0.207424,0.291407,00111100,8,100,12.5
62399,66560,2006/07/15 04:00:16,46.9313,-2.6447,19,0.267193,0.254621,00111100,3,100,12.5
62399,66560,2006/07/15 05:00:16,46.9351,-2.6340,19.56,0.225679,0.117372,00111100,5,98,12.5
62399,66560,2006/07/15 06:00:40,46.9337,-2.6275,19.64,0.136184,-0.042956,00111100,6,100,12.5
62399,66560,2006/07/15 07:00:10,46.9298,-2.6248,19.72,0.057427,-0.121473,00111100,4,100,12.5
62399,66560,2006/07/15 08:00:16,46.9235,-2.6246,19.8,0.004212,-0.194267,00111100,3,88,12.5
62399,66560,2006/07/15 09:00:07,46.9164,-2.6285,19.8,-0.082484,-0.219851,00111100,1,44,12.5
62399,66560,2006/07/15 10:00:40,46.9079,-2.6380,19.88,-0.198628,-0.260159,00111100,1,12,12.5
62399,66560,2006/07/15 11:00:16,46.9006,-2.6452,20.04,-0.152961,-0.226992,00111100,1,26,12.5
62399,66560,2006/07/15 12:00:16,46.8965,-2.6518,20.2,-0.139294,-0.126639,00111100,1,4,12.5
62399,66560,2006/07/15 13:00:40,46.8975,-2.6584,20.44,-0.138376,0.030683,00111100,3,0,12.5
62399,66560,2006/07/15 14:00:11,46.9046,-2.6584,20.68,0,0.221082,00111100,1,0,12.5
62399,66560,2006/07/15 15:00:16,46.9155,-2.6516,20.76,0.143285,0.336207,00111100,6,0,12.5
62399,66560,2006/07/15 16:00:40,46.9281,-2.6403,20.92,0.236806,0.386605,00111100,4,0,12.5
62399,66560,2006/07/15 17:00:10,46.9375,-2.6268,21.08,0.287131,0.292782,00111100,1,0,12.5
62399,66560,2006/07/15 18:00:10,46.9412,-2.6139,21.08,0.27205,0.114284,00111100,4,0,12.5
62399,66560,2006/07/15 19:00:40,46.9395,-2.6051,21,0.184047,-0.052075,00111100,3,0,12.5
62399,66560,2006/07/15 20:00:16,46.9340,-2.6002,20.84,0.104035,-0.171021,00111100,3,1,12.5
62399,66560,2006/07/15 21:00:16,46.9262,-2.5992,20.68,0.021093,-0.240922,00111100,1,4,12.5
62399,66560,2006/07/15 22:00:40,46.9164,-2.6044,20.68,-0.108974,-0.300693,00111100,3,1,12.5
62399,66560,2006/07/15 23:00:05,46.9068,-2.6140,20.6,-0.204549,-0.299431,00111100,1,6,12.5
62399,66560,2006/07/16 00:00:10,46.8993,-2.6264,20.52,-0.261319,-0.231335,00111100,3,23,12.5
62399,66560,2006/07/16 01:00:40,46.8967,-2.6385,20.44,-0.253265,-0.079644,00111100,1,74,12.5
62399,66560,2006/07/16 02:00:05,46.9009,-2.6453,20.2,-0.144924,0.131001,00111100,6,100,12.5
62399,66560,2006/07/16 03:00:10,46.9114,-2.6441,20.04,0.025287,0.323869,00111100,4,100,12.5
62399,66560,2006/07/16 04:00:40,46.9239,-2.6361,19.96,0.167386,0.382903,00111100,5,96,12.5
62399,66560,2006/07/16 05:00:11,46.9346,-2.6246,19.96,0.24454,0.33318,00111100,11,100,12.5
62399,66560,2006/07/16 06:00:40,46.9394,-2.6140,20.04,0.221768,0.147075,00111100,4,100,12.5
62399,66560,2006/07/16 07:00:16,46.9391,-2.6059,20.04,0.171969,-0.009328,00111100,4,100,12.5
62399,66560,2006/07/16 08:00:11,46.9345,-2.6005,20.04,0.114045,-0.14228,00111100,1,95,12.5
62399,66560,2006/07/16 09:00:06,46.9279,-2.5979,20.04,0.054916,-0.204141,00111100,3,50,12.5
62399,66560,2006/07/16 10:00:40,46.9202,-2.6000,20.12,-0.043885,-0.235608,00111100,1,20,12.5
62399,66560,2006/07/16 11:00:06,46.9112,-2.6088,20.2,-0.187436,-0.280638,00111100,1,6,12.5
62399,66560,2006/07/16 12:00:10,46.9033,-2.6219,20.36,-0.276126,-0.24374,00111100,7,3,12.5
62399,66560,2006/07/16 13:00:40,46.8995,-2.6354,20.68,-0.28255,-0.116402,00111100,6,0,12.5
62399,66560,2006/07/16 14:00:16,46.9032,-2.6434,20.92,-0.169966,0.115051,00111100,5,0,12.5
62399,66560,2006/07/16 15:00:40,46.9124,-2.6438,21.16,-0.008385,0.282283,00111100,4,0,12.5
62399,66560,2006/07/16 16:00:11,46.9249,-2.6364,21.24,0.157388,0.389229,00111100,3,0,12.5
62399,66560,2006/07/16 17:00:10,46.9367,-2.6235,21.32,0.272169,0.364574,00111100,3,0,12.5
62399,66560,2006/07/16 18:00:40,46.9447,-2.6095,21.16,0.2928,0.245058,00111100,1,0,12.5
62399,66560,2006/07/16 19:00:16,46.9473,-2.5979,20.6,0.246245,0.080846,00111100,1,0,12.5
62399,66560,2006/07/16 20:00:16,46.9469,-2.5890,19.8,0.187666,-0.012355,00111100,1,28,12.5
62399,66560,2006/07/16 21:00:40,46.9427,-2.5825,20.04,0.136158,-0.128868,00111100,1,44,12.5
62399,66560,2006/07/16 22:00:10,46.9358,-2.5813,20.12,0.02552,-0.214915,00111100,1,20,12.5
62399,66560,2006/07/16 23:00:40,46.9264,-2.5872,20.12,-0.123416,-0.287943,00111100,1,28,12.5
62399,66560,2006/07/17 00:00:16,46.9178,-2.5982,20.2,-0.233612,-0.267415,00111100,1,14,12.5
62399,66560,2006/07/17 01:00:10,46.9123,-2.6101,20.12,-0.251493,-0.170165,00111100,4,42,12.5
62399,66560,2006/07/17 02:00:40,46.9124,-2.6199,20.04,-0.205069,0.003063,00111100,4,7,12.5
62399,66560,2006/07/17 03:00:10,46.9198,-2.6217,19.48,-0.038296,0.230488,00111100,7,0,12.5
62399,66560,2006/07/17 04:00:11,46.9311,-2.6153,18.52,0.134968,0.348932,00111100,4,0,12.5
62399,66560,2006/07/17 05:00:40,46.9446,-2.6037,18.44,0.242686,0.413649,00111100,4,0,12.5
62399,66560,2006/07/17 06:00:11,46.9551,-2.5903,18.44,0.284833,0.326952,00111100,1,0,12.5
62399,66560,2006/07/18 10:00:00,46.9620,-2.5800,23.72,0.007756,0.007612,00111400,1,0,12.5
